• In Uzbekistan
  • List of Countries
  • For 7 days
  • Water Temperature
  • Satellite Maps
  • Weather Map
  • Weather Widgets
  • user-avatar
    Login

    Hourly Weather Salva

    Today, 19 July, Thursday

    Time Temperature Precipitation Wind Pressure Humidity
    00:00 +36°C° 0 mm 1 mps 748 mmHg 21%
    01:00 +35°C° 0 mm 1 mps 748 mmHg 21%
    02:00 +35°C° 0 mm 1 mps 748 mmHg 21%
    03:00 +35°C° 0 mm 1 mps 748 mmHg 21%
    04:00 +36°C° 0 mm 2 mps 748 mmHg 21%
    05:00 +36°C° 0 mm 3 mps 749 mmHg 21%
    06:00 +37°C° 0 mm 3 mps 749 mmHg 21%
    07:00 +40°C° 0 mm 4 mps 749 mmHg 18%
    08:00 +42°C° 0 mm 4 mps 749 mmHg 15%
    09:00 +45°C° 0 mm 4 mps 749 mmHg 11%
    10:00 +47°C° 0 mm 5 mps 749 mmHg 10%
    11:00 +48°C° 0 mm 6 mps 749 mmHg 8%
    12:00 +51°C° 0 mm 6 mps 748 mmHg 7%
    13:00 +51°C° 0 mm 7 mps 748 mmHg 7%
    14:00 +51°C° 0 mm 7 mps 748 mmHg 7%
    15:00 +51°C° 0 mm 8 mps 747 mmHg 7%
    16:00 +49°C° 0 mm 6 mps 747 mmHg 7%
    17:00 +48°C° 0 mm 5 mps 747 mmHg 8%
    18:00 +47°C° 0 mm 4 mps 747 mmHg 8%
    19:00 +44°C° 0 mm 3 mps 747 mmHg 11%
    20:00 +43°C° 0 mm 3 mps 747 mmHg 14%
    21:00 +40°C° 0 mm 3 mps 748 mmHg 17%
    22:00 +39°C° 0 mm 3 mps 748 mmHg 20%
    23:00 +38°C° 0 mm 3 mps 747 mmHg 24%

    Tomorrow, 20 July, Friday

    Time Temperature Precipitation Wind Pressure Humidity
    00:00 +37°C° 0 mm 2 mps 747 mmHg 27%
    01:00 +37°C° 0 mm 2 mps 747 mmHg 26%
    02:00 +37°C° 0 mm 3 mps 747 mmHg 25%
    03:00 +36°C° 0 mm 3 mps 747 mmHg 23%
    04:00 +37°C° 0 mm 3 mps 747 mmHg 21%
    05:00 +37°C° 0 mm 3 mps 747 mmHg 19%
    06:00 +37°C° 0 mm 3 mps 747 mmHg 17%
    07:00 +41°C° 0 mm 4 mps 747 mmHg 14%
    08:00 +44°C° 0 mm 4 mps 747 mmHg 11%
    09:00 +47°C° 0 mm 5 mps 748 mmHg 8%
    10:00 +48°C° 0 mm 5 mps 747 mmHg 8%
    11:00 +49°C° 0 mm 4 mps 747 mmHg 7%
    12:00 +50°C° 0 mm 4 mps 747 mmHg 7%
    13:00 +50°C° 0 mm 4 mps 746 mmHg 7%
    14:00 +51°C° 0 mm 4 mps 746 mmHg 7%
    15:00 +52°C° 0 mm 5 mps 745 mmHg 7%
    16:00 +49°C° 0 mm 5 mps 745 mmHg 9%
    17:00 +48°C° 0 mm 5 mps 745 mmHg 11%
    18:00 +46°C° 0 mm 6 mps 745 mmHg 13%
    19:00 +44°C° 0 mm 4 mps 745 mmHg 18%
    20:00 +42°C° 0 mm 3 mps 746 mmHg 22%
    21:00 +39°C° 0 mm 2 mps 746 mmHg 26%
    22:00 +39°C° 0 mm 2 mps 746 mmHg 26%
    23:00 +39°C° 0 mm 2 mps 746 mmHg 26%

    Day after tomorrow, 21 July, Saturday

    Time Temperature Precipitation Wind Pressure Humidity
    00:00 +39°C° 0 mm 2 mps 746 mmHg 25%
    01:00 +39°C° 0 mm 3 mps 746 mmHg 25%
    02:00 +39°C° 0 mm 3 mps 746 mmHg 24%
    03:00 +38°C° 0 mm 4 mps 746 mmHg 24%
    04:00 +38°C° 0 mm 4 mps 746 mmHg 23%
    05:00 +38°C° 0 mm 4 mps 746 mmHg 22%
    06:00 +39°C° 0 mm 5 mps 746 mmHg 21%
    07:00 +41°C° 0 mm 6 mps 747 mmHg 20%
    08:00 +44°C° 0 mm 8 mps 747 mmHg 20%
    09:00 +47°C° 0 mm 9 mps 747 mmHg 19%
    10:00 +48°C° 0 mm 10 mps 747 mmHg 17%
    11:00 +49°C° 0 mm 10 mps 747 mmHg 15%
    12:00 +50°C° 0 mm 10 mps 746 mmHg 13%
    13:00 +50°C° 0 mm 10 mps 746 mmHg 13%
    14:00 +50°C° 0 mm 10 mps 746 mmHg 13%
    15:00 +50°C° 0 mm 10 mps 745 mmHg 13%
    16:00 +48°C° 0 mm 9 mps 745 mmHg 14%
    17:00 +46°C° 0 mm 8 mps 745 mmHg 16%
    18:00 +45°C° 0 mm 7 mps 746 mmHg 17%
    19:00 +44°C° 0 mm 6 mps 746 mmHg 19%
    20:00 +42°C° 0 mm 5 mps 746 mmHg 21%
    21:00 +41°C° 0 mm 4 mps 747 mmHg 23%
    22:00 +39°C° 0 mm 3 mps 747 mmHg 24%
    23:00 +39°C° 0 mm 3 mps 746 mmHg 24%

    22 July, Sunday

    Time Temperature Precipitation Wind Pressure Humidity
    00:00 +39°C° 0 mm 2 mps 746 mmHg 25%
    01:00 +38°C° 0 mm 3 mps 746 mmHg 24%
    02:00 +38°C° 0 mm 3 mps 746 mmHg 23%
    03:00 +37°C° 0 mm 3 mps 745 mmHg 23%
    04:00 +38°C° 0 mm 4 mps 746 mmHg 22%
    05:00 +39°C° 0 mm 5 mps 746 mmHg 21%
    06:00 +39°C° 0 mm 5 mps 747 mmHg 20%
    07:00 +41°C° 0 mm 7 mps 747 mmHg 19%
    08:00 +44°C° 0 mm 8 mps 747 mmHg 17%
    09:00 +47°C° 0 mm 10 mps 747 mmHg 16%
    10:00 +48°C° 0 mm 10 mps 747 mmHg 14%
    11:00 +49°C° 0 mm 10 mps 746 mmHg 13%
    12:00 +50°C° 0 mm 10 mps 746 mmHg 11%
    13:00 +51°C° 0 mm 11 mps 746 mmHg 11%
    14:00 +51°C° 0 mm 11 mps 745 mmHg 11%
    15:00 +51°C° 0 mm 11 mps 745 mmHg 11%
    16:00 +49°C° 0 mm 10 mps 745 mmHg 12%
    17:00 +48°C° 0 mm 10 mps 745 mmHg 13%
    18:00 +47°C° 0 mm 9 mps 745 mmHg 14%
    19:00 +44°C° 0 mm 8 mps 746 mmHg 17%
    20:00 +42°C° 0 mm 6 mps 746 mmHg 21%
    21:00 +41°C° 0 mm 5 mps 746 mmHg 24%
    22:00 +41°C° 0 mm 5 mps 746 mmHg 25%
    23:00 +40°C° 0 mm 5 mps 746 mmHg 26%

    23 July, Monday

    Time Temperature Precipitation Wind Pressure Humidity
    00:00 +40°C° 0 mm 5 mps 746 mmHg 27%
    01:00 +40°C° 0 mm 5 mps 746 mmHg 26%
    02:00 +39°C° 0 mm 5 mps 745 mmHg 25%
    03:00 +39°C° 0 mm 6 mps 745 mmHg 25%
    04:00 +39°C° 0 mm 6 mps 746 mmHg 25%
    05:00 +39°C° 0 mm 6 mps 746 mmHg 26%
    06:00 +40°C° 0 mm 6 mps 746 mmHg 26%
    07:00 +43°C° 0 mm 8 mps 746 mmHg 23%
    08:00 +45°C° 0 mm 9 mps 746 mmHg 19%
    09:00 +49°C° 0 mm 11 mps 746 mmHg 15%
    10:00 +49°C° 0 mm 11 mps 746 mmHg 14%
    11:00 +51°C° 0 mm 11 mps 746 mmHg 13%
    12:00 +52°C° 0 mm 12 mps 745 mmHg 12%
    13:00 +52°C° 0 mm 12 mps 745 mmHg 11%
    14:00 +52°C° 0 mm 12 mps 745 mmHg 11%
    15:00 +52°C° 0 mm 12 mps 744 mmHg 11%
    16:00 +51°C° 0 mm 11 mps 745 mmHg 12%
    17:00 +48°C° 0 mm 11 mps 745 mmHg 14%
    18:00 +47°C° 0 mm 10 mps 745 mmHg 15%
    19:00 +45°C° 0 mm 8 mps 745 mmHg 18%
    20:00 +44°C° 0 mm 7 mps 745 mmHg 21%
    21:00 +42°C° 0 mm 6 mps 746 mmHg 24%
    22:00 +41°C° 0 mm 5 mps 745 mmHg 25%
    23:00 +41°C° 0 mm 5 mps 745 mmHg 26%

    24 July, Tuesday

    Time Temperature Precipitation Wind Pressure Humidity
    00:00 +40°C° 0 mm 5 mps 745 mmHg 27%
    01:00 +40°C° 0 mm 5 mps 745 mmHg 29%
    02:00 +40°C° 0 mm 5 mps 745 mmHg 30%
    03:00 +39°C° 0 mm 5 mps 745 mmHg 31%
    04:00 +39°C° 0 mm 5 mps 745 mmHg 33%
    05:00 +39°C° 0 mm 5 mps 745 mmHg 35%
    06:00 +39°C° 0 mm 5 mps 746 mmHg 37%
    07:00 +41°C° 0 mm 7 mps 746 mmHg 31%
    08:00 +45°C° 0 mm 8 mps 746 mmHg 24%
    09:00 +48°C° 0 mm 9 mps 747 mmHg 18%
    10:00 +49°C° 0 mm 10 mps 746 mmHg 16%
    11:00 +50°C° 0 mm 10 mps 746 mmHg 14%
    12:00 +52°C° 0 mm 11 mps 746 mmHg 12%
    13:00 +52°C° 0 mm 11 mps 746 mmHg 12%
    14:00 +52°C° 0 mm 11 mps 745 mmHg 11%
    15:00 +52°C° 0 mm 11 mps 745 mmHg 11%
    16:00 +50°C° 0 mm 10 mps 745 mmHg 13%
    17:00 +48°C° 0 mm 9 mps 746 mmHg 15%
    18:00 +46°C° 0 mm 8 mps 746 mmHg 17%
    19:00 +45°C° 0 mm 7 mps 746 mmHg 19%
    20:00 +42°C° 0 mm 5 mps 746 mmHg 22%
    21:00 +41°C° 0 mm 4 mps 747 mmHg 24%
    22:00 +40°C° 0 mm 3 mps 746 mmHg 25%
    23:00 +39°C° 0 mm 3 mps 746 mmHg 26%
    Show more